Starlink 31756

operational
NORAD ID: 61517 Int'l Des: 2024-183 Owner: SPXS Country: US Constellation: starlink
LEOCIRCULAR

Über Starlink 31756

Beschreibung wird geladen...

Live-Position

3D-Globus wird geladen...

Nächste Überflüge

Höhenverlauf

Altitude vs Time

uPlot chart will show altitude changes over time

Zweizeiliger Elementsatz

1 61517U 24183J 25351.69886030 .00000601 00000-0 32406-4 0 9990
2 61517 53.1604 163.6364 0001268 87.5765 272.5381 15.30195141 67095
Epoch: 17. Dez. 2025 • Age: 17 hours

Aktueller Status

Höhe 481.4 km
Geschwindigkeit 7.62 km/s
Subsatellitenpunkt -20.78°S, 129.43°E
Startdatum 15. Okt. 2024
Alter 1.1 years
Typ internet

Technische Details

Klassifizierung Payload
Masse 730.00 kg
Trockenmasse 700.00 kg
Gesamtmasse 730.00 kg
Länge 0.30 m
Durchmesser 4.10 m
Spannweite 29.00 m
Form Box + pan
Hersteller SPXS
Bus-Typ Starlink V2M
Phasenstatus In Orbit
Besitzer/Staat SPXS/US

Große Konstellationen

Loading constellations...